Satellite: GO-32
Catalog number: 25397
Epoch time:      09018.74163340
Element set:     800
Inclination:      098.3423 deg
RA of node:       048.9836 deg
Eccentricity:    0.0001187
Arg of perigee:   016.1086 deg
Mean anomaly:     344.0117 deg
Mean motion:   14.23153728 rev/day
Decay rate:       -5.7e-07 rev/day^2
Epoch rev:           54687
Checksum:              301

Satellite: NO-44
Catalog number: 26931
Epoch time:      09018.21410813
Element set:      76
Inclination:      067.0523 deg
RA of node:       090.7126 deg
Eccentricity:    0.0005865
Arg of perigee:   260.8231 deg
Mean anomaly:     099.2219 deg
Mean motion:   14.29544426 rev/day
Decay rate:       -7.5e-07 rev/day^2
Epoch rev:           38114
Checksum:              288

Satellite: SO-50
Catalog number: 27607
Epoch time:      09018.59709417
Element set:     793
Inclination:      064.5585 deg
RA of node:       119.4193 deg
Eccentricity:    0.0081137
Arg of perigee:   237.5643 deg
Mean anomaly:     121.7553 deg
Mean motion:   14.71409479 rev/day
Decay rate:        9.3e-07 rev/day^2
Epoch rev:           32666
Checksum:              333

Satellite: CO-55
Catalog number: 27844
Epoch time:      09017.76280702
Element set:     490
Inclination:      098.7153 deg
RA of node:       029.0404 deg
Eccentricity:    0.0009259
Arg of perigee:   215.0798 deg
Mean anomaly:     144.9771 deg
Mean motion:   14.20618076 rev/day
Decay rate:        4.7e-07 rev/day^2
Epoch rev:           28790
Checksum:              322

Satellite: CO-57
Catalog number: 27848
Epoch time:      09017.57863785
Element set:     437
Inclination:      098.7161 deg
RA of node:       027.9251 deg
Eccentricity:    0.0009111
Arg of perigee:   221.3440 deg
Mean anomaly:     138.7047 deg
Mean motion:   14.20422742 rev/day
Decay rate:        3.0e-08 rev/day^2
Epoch rev:           28784
Checksum:              309

Satellite: AO-51
Catalog number: 28375
Epoch time:      09018.63745075
Element set:     295
Inclination:      098.0567 deg
RA of node:       036.9243 deg
Eccentricity:    0.0082901
Arg of perigee:   219.1049 deg
Mean anomaly:     140.4133 deg
Mean motion:   14.40630679 rev/day
Decay rate:        1.0e-08 rev/day^2
Epoch rev:           23942
Checksum:              299

Satellite: CO-56
Catalog number: 28941
Epoch time:      09018.62232546
Element set:     736
Inclination:      098.1233 deg
RA of node:       167.0865 deg
Eccentricity:    0.0125272
Arg of perigee:   331.8942 deg
Mean anomaly:     027.5612 deg
Mean motion:   15.69614580 rev/day
Decay rate:     2.3073e-04 rev/day^2
Epoch rev:           16368
Checksum:              322

Satellite: CP3
Catalog number: 31128
Epoch time:      09018.68588960
Element set:     534
Inclination:      098.0129 deg
RA of node:       078.6887 deg
Eccentricity:    0.0103557
Arg of perigee:   028.8413 deg
Mean anomaly:     331.8449 deg
Mean motion:   14.52010951 rev/day
Decay rate:       -4.7e-07 rev/day^2
Epoch rev:            9320
Checksum:              314

Satellite: CP4
Catalog number: 31132
Epoch time:      09017.83660418
Element set:     512
Inclination:      098.0173 deg
RA of node:       081.1172 deg
Eccentricity:    0.0086344
Arg of perigee:   022.2282 deg
Mean anomaly:     338.2571 deg
Mean motion:   14.55175939 rev/day
Decay rate:       -6.9e-07 rev/day^2
Epoch rev:            9316
Checksum:              289

Satellite: CO-65
Catalog number: 32785
Epoch time:      09018.31713423
Element set:     267
Inclination:      097.9671 deg
RA of node:       083.3783 deg
Eccentricity:    0.0015338
Arg of perigee:   154.3550 deg
Mean anomaly:     205.8423 deg
Mean motion:   14.81438556 rev/day
Decay rate:       -9.6e-07 rev/day^2
Epoch rev:            3925
Checksum:              322

/EX
SB KEPS @ AMSAT  $ORB09018.W
Orbital Elements  09018.WEATHER

HR AMSAT ORBITAL ELEMENTS FOR WEATHER SATELLITES
FROM WA5QGD FORT WORTH,TX January 18, 2009
Send Subscribe/unsubscribe to KEPS at 
http://www.amsat.org/mailman/listinfo/keps
BID: ORB09018.W
TO ALL RADIO AMATEURS BT

Satellite: NOAA-10
Catalog number: 16969
Epoch time:      09018.28749538
Element set:     464
Inclination:      098.7067 deg
RA of node:       045.6431 deg
Eccentricity:    0.0011557
Arg of perigee:   274.8064 deg
Mean anomaly:     085.1783 deg
Mean motion:   14.27378028 rev/day
Decay rate:       -2.1e-07 rev/day^2
Epoch rev:           16212
Checksum:              321

Satellite: NOAA-11
Catalog number: 19531
Epoch time:      09018.28872595
Element set:     480
Inclination:      098.7889 deg
RA of node:       110.5475 deg
Eccentricity:    0.0011546
Arg of perigee:   172.4305 deg
Mean anomaly:     187.7026 deg
Mean motion:   14.14887699 rev/day
Decay rate:       1.79e-06 rev/day^2
Epoch rev:            4832
Checksum:              340

Satellite: NOAA-12
Catalog number: 21263
Epoch time:      09018.53898829
Element set:     981
Inclination:      098.7722 deg
RA of node:       026.5285 deg
Eccentricity:    0.0011688
Arg of perigee:   218.4411 deg
Mean anomaly:     141.5936 deg
Mean motion:   14.25563372 rev/day
Decay rate:        2.8e-07 rev/day^2
Epoch rev:           91907
Checksum:              327

